Hourly Weather Rudovskie Vyselki

Today, 13 April, Tuesday

Time Temperature Precipitation Wind Pressure Humidity
00:00 +10°C° 0 mm 4 mps 755 mmHg 80%
01:00 +10°C° 0 mm 4 mps 755 mmHg 79%
02:00 +8°C° 0 mm 4 mps 755 mmHg 77%
03:00 +9°C° 0 mm 3 mps 755 mmHg 75%
04:00 +7°C° 0 mm 4 mps 755 mmHg 74%
05:00 +7°C° 0 mm 4 mps 755 mmHg 74%
06:00 +6°C° 0 mm 4 mps 755 mmHg 73%
07:00 +8°C° 0 mm 4 mps 755 mmHg 65%
08:00 +10°C° 0 mm 5 mps 755 mmHg 58%
09:00 +13°C° 0 mm 5 mps 755 mmHg 50%
10:00 +15°C° 0 mm 6 mps 755 mmHg 44%
11:00 +16°C° 0 mm 6 mps 754 mmHg 38%
12:00 +19°C° 0 mm 6 mps 754 mmHg 32%
13:00 +20°C° 0 mm 6 mps 754 mmHg 30%
14:00 +20°C° 0 mm 6 mps 754 mmHg 28%
15:00 +21°C° 0 mm 6 mps 753 mmHg 26%
16:00 +20°C° 0 mm 5 mps 753 mmHg 31%
17:00 +19°C° 0 mm 5 mps 753 mmHg 36%
18:00 +17°C° 0 mm 4 mps 753 mmHg 40%
19:00 +15°C° 0 mm 4 mps 753 mmHg 46%
20:00 +13°C° 0 mm 4 mps 753 mmHg 51%
21:00 +12°C° 0 mm 3 mps 753 mmHg 56%
22:00 +11°C° 0 mm 3 mps 753 mmHg 59%
23:00 +10°C° 0 mm 3 mps 752 mmHg 62%

Tomorrow, 14 April, Wednesday

Time Temperature Precipitation Wind Pressure Humidity
00:00 +10°C° 0 mm 3 mps 752 mmHg 64%
01:00 +9°C° 0 mm 3 mps 752 mmHg 67%
02:00 +8°C° 0 mm 3 mps 752 mmHg 69%
03:00 +8°C° 0 mm 3 mps 752 mmHg 71%
04:00 +7°C° 0 mm 3 mps 751 mmHg 71%
05:00 +7°C° 0 mm 3 mps 751 mmHg 71%
06:00 +7°C° 0 mm 3 mps 751 mmHg 71%
07:00 +8°C° 0 mm 4 mps 751 mmHg 64%
08:00 +11°C° 0 mm 4 mps 751 mmHg 57%
09:00 +12°C° 0 mm 5 mps 751 mmHg 50%
10:00 +14°C° 0 mm 5 mps 750 mmHg 45%
11:00 +16°C° 0 mm 5 mps 750 mmHg 39%
12:00 +17°C° 0 mm 5 mps 750 mmHg 34%
13:00 +19°C° 0 mm 5 mps 749 mmHg 32%
14:00 +19°C° 0 mm 5 mps 749 mmHg 30%
15:00 +20°C° 0 mm 5 mps 748 mmHg 28%
16:00 +19°C° 0 mm 4 mps 748 mmHg 33%
17:00 +18°C° 0 mm 4 mps 748 mmHg 37%
18:00 +17°C° 0 mm 3 mps 748 mmHg 42%
19:00 +16°C° 0 mm 3 mps 748 mmHg 46%
20:00 +13°C° 0 mm 3 mps 748 mmHg 50%
21:00 +12°C° 0 mm 3 mps 748 mmHg 54%
22:00 +11°C° 0 mm 3 mps 748 mmHg 56%
23:00 +10°C° 0 mm 3 mps 747 mmHg 59%

Day after tomorrow, 15 April, Thursday

Time Temperature Precipitation Wind Pressure Humidity
00:00 +10°C° 0 mm 3 mps 747 mmHg 62%
01:00 +9°C° 0 mm 3 mps 747 mmHg 65%
02:00 +9°C° 0 mm 3 mps 747 mmHg 68%
03:00 +8°C° 0 mm 3 mps 747 mmHg 71%
04:00 +8°C° 0 mm 3 mps 747 mmHg 72%
05:00 +8°C° 0 mm 3 mps 746 mmHg 74%
06:00 +8°C° 0 mm 3 mps 746 mmHg 76%
07:00 +10°C° 0 mm 3 mps 746 mmHg 70%
08:00 +12°C° 0 mm 4 mps 746 mmHg 64%
09:00 +13°C° 0 mm 4 mps 746 mmHg 58%
10:00 +15°C° 0 mm 4 mps 746 mmHg 52%
11:00 +18°C° 0 mm 4 mps 746 mmHg 46%
12:00 +19°C° 0 mm 5 mps 745 mmHg 41%
13:00 +20°C° 0 mm 5 mps 745 mmHg 39%
14:00 +20°C° 0 mm 5 mps 745 mmHg 38%
15:00 +21°C° 0 mm 5 mps 745 mmHg 36%
16:00 +20°C° 0 mm 4 mps 744 mmHg 40%
17:00 +19°C° 0 mm 3 mps 744 mmHg 43%
18:00 +19°C° 0 mm 2 mps 744 mmHg 47%
19:00 +18°C° 0 mm 2 mps 744 mmHg 50%
20:00 +16°C° 0 mm 2 mps 744 mmHg 54%
21:00 +15°C° 0 mm 2 mps 744 mmHg 57%
22:00 +14°C° 0 mm 2 mps 744 mmHg 60%
23:00 +13°C° 0 mm 3 mps 744 mmHg 63%

16 April, Friday

Time Temperature Precipitation Wind Pressure Humidity
00:00 +12°C° 0 mm 3 mps 744 mmHg 66%
01:00 +11°C° 0 mm 3 mps 744 mmHg 68%
02:00 +11°C° 0 mm 3 mps 744 mmHg 70%
03:00 +10°C° 0 mm 2 mps 744 mmHg 71%
04:00 +10°C° 0 mm 3 mps 744 mmHg 72%
05:00 +10°C° 0 mm 3 mps 744 mmHg 73%
06:00 +10°C° 0 mm 3 mps 744 mmHg 73%
07:00 +11°C° 0 mm 3 mps 744 mmHg 68%
08:00 +13°C° 0 mm 3 mps 744 mmHg 62%
09:00 +15°C° 0 mm 4 mps 744 mmHg 56%
10:00 +17°C° 0 mm 4 mps 744 mmHg 51%
11:00 +19°C° 0 mm 4 mps 744 mmHg 46%
12:00 +20°C° 0 mm 4 mps 745 mmHg 41%
13:00 +20°C° 0 mm 4 mps 745 mmHg 38%
14:00 +21°C° 0 mm 4 mps 745 mmHg 35%
15:00 +21°C° 0 mm 4 mps 745 mmHg 33%
16:00 +21°C° 0 mm 4 mps 745 mmHg 36%
17:00 +20°C° 0 mm 4 mps 745 mmHg 40%
18:00 +19°C° 0 mm 4 mps 745 mmHg 43%
19:00 +18°C° 0.2 mm 4 mps 745 mmHg 52%
20:00 +15°C° 0.2 mm 5 mps 746 mmHg 61%
21:00 +14°C° 0.2 mm 5 mps 746 mmHg 69%
22:00 +13°C° 0.1 mm 5 mps 746 mmHg 73%
23:00 +11°C° 0.1 mm 6 mps 746 mmHg 77%

17 April, Saturday

Time Temperature Precipitation Wind Pressure Humidity
00:00 +10°C° 0.1 mm 6 mps 746 mmHg 81%
01:00 +9°C° 0.1 mm 6 mps 747 mmHg 83%
02:00 +9°C° 0.1 mm 6 mps 747 mmHg 84%
03:00 +8°C° 0.1 mm 6 mps 747 mmHg 86%
04:00 +8°C° 0 mm 6 mps 747 mmHg 86%
05:00 +7°C° 0 mm 6 mps 747 mmHg 86%
06:00 +7°C° 0 mm 6 mps 748 mmHg 85%
07:00 +7°C° 0 mm 6 mps 748 mmHg 81%
08:00 +8°C° 0 mm 6 mps 748 mmHg 78%
09:00 +8°C° 0 mm 7 mps 748 mmHg 74%
10:00 +9°C° 0 mm 7 mps 749 mmHg 69%
11:00 +10°C° 0 mm 7 mps 749 mmHg 64%
12:00 +11°C° 0 mm 7 mps 749 mmHg 59%
13:00 +11°C° 0 mm 7 mps 749 mmHg 53%
14:00 +12°C° 0 mm 7 mps 749 mmHg 47%
15:00 +12°C° 0 mm 8 mps 750 mmHg 41%
16:00 +12°C° 0 mm 7 mps 750 mmHg 41%
17:00 +11°C° 0 mm 7 mps 750 mmHg 40%
18:00 +10°C° 0 mm 7 mps 750 mmHg 40%
19:00 +9°C° 0 mm 7 mps 751 mmHg 43%
20:00 +8°C° 0 mm 6 mps 751 mmHg 46%
21:00 +7°C° 0 mm 6 mps 752 mmHg 49%
22:00 +5°C° 0 mm 6 mps 752 mmHg 50%
23:00 +5°C° 0 mm 6 mps 753 mmHg 51%

18 April, Sunday

Time Temperature Precipitation Wind Pressure Humidity
00:00 +4°C° 0 mm 6 mps 753 mmHg 53%
01:00 +3°C° 0 mm 6 mps 754 mmHg 53%
02:00 +2°C° 0 mm 5 mps 754 mmHg 54%
03:00 +2°C° 0 mm 5 mps 755 mmHg 55%
04:00 +1°C° 0 mm 5 mps 755 mmHg 56%
05:00 +1°C° 0 mm 5 mps 755 mmHg 57%
06:00 0°C° 0 mm 5 mps 756 mmHg 58%
07:00 +1°C° 0 mm 5 mps 756 mmHg 50%
08:00 +2°C° 0 mm 5 mps 757 mmHg 41%
09:00 +3°C° 0 mm 5 mps 757 mmHg 33%
10:00 +6°C° 0 mm 5 mps 757 mmHg 29%
11:00 +7°C° 0 mm 5 mps 757 mmHg 26%
12:00 +8°C° 0 mm 4 mps 757 mmHg 22%
13:00 +8°C° 0 mm 4 mps 757 mmHg 21%
14:00 +10°C° 0 mm 4 mps 757 mmHg 20%
15:00 +10°C° 0 mm 3 mps 757 mmHg 20%
16:00 +10°C° 0 mm 3 mps 757 mmHg 21%
17:00 +10°C° 0 mm 3 mps 756 mmHg 23%
18:00 +10°C° 0 mm 3 mps 756 mmHg 25%
19:00 +9°C° 0 mm 3 mps 757 mmHg 29%
20:00 +8°C° 0 mm 2 mps 757 mmHg 33%
21:00 +6°C° 0 mm 2 mps 757 mmHg 37%
22:00 +6°C° 0 mm 2 mps 757 mmHg 39%
23:00 +7°C° 0 mm 1 mps 757 mmHg 40%
Show more